DELTA 1 DEB, 23309

Orbit data source: Space-Track

DELTA 1 DEB, 23309 is space debris in SSO originally from a launch on Thu, 12 Jun 1975 UTC launched from the Air Force Western Test Range (AFWTR). Debris objects in space refer to the collection of defunct objects orbiting the Earth. Examples of debris include non-operational satellites, rocket bodies, and fragments generated from explosions, collisions, or faulty payload assembly.

Loading next visibility...
Identifier
23309, 1975-052JY
Orbit
SSO
Country
Flag of USUS
Related business
Manufacturer
Unknown
Mission
Spacecraft
Bus & Motor
Unknown
Mass
Unknown
Launch date (UTC)
1975-06-12 (51 years ago)
Launch vehicle
Unknown
Launch site
Air Force Western Test Range (AFWTR)
Object type
Payload
Rocket body
Debris
Shape & HBR
Unknown shape, 0.1 m
Radar Cross Section
Medium (>0.1 m² and <1 m²)

Expand to show TLE details & history
Last TLE update: 2 days ago

TLE from 2 days ago
0 DELTA 1 DEB
1 23309U 75052JY  26171.29082463  .00000330  00000-0  12843-2 0  9993
2 23309  99.6931  42.0623 0396055  80.8284 344.4697 12.72515076626356
Epoch: 2026-06-20T06:58Z
TLE epoch observation values (Epoch: 2026-06-20T06:58:47.248Z)
Latitude
62.4824°
Longitude
9.82082°
Altitude
1,087.466 km
Speed
7.452 km/s
True Right ascension
01h 32m 06s
True Declination
62° 20' 51"
Sunlit
Object was in daylight at epoch
Visualization orbit readout
Latitude
Unknown
Longitude
Unknown
Altitude
Unknown
Speed
Unknown
Apparent Right ascension
Unknown
Apparent Declination
Unknown
Sunlit
N/A
Visualization observer readout
Local Sidereal Time
14:37:19
Azimuth
Unknown
Elevation
Unknown
Doppler factor
Unknown
Orbital elements
Apogee altitude
1,675.945 km
Perigee altitude
1,062.277 km
Semi-major axis
7,747.248 km
Eccentricity
0.03961
Inclination
99.6931°
RAAN
42.0623°
Arg. of periapsis
80.8284°
True anomaly
343.19391°
Mean anomaly
344.4697°
Eccentric anomaly
343.83805°
Mean motion
3.18289 °/min
Orbital period
113.1 mins
BSTAR
0.0012843
Loading maneuver chart data...
Computing Atmospheric mass density...
Loading historical data...
Loading historical data...
Loading historical data...
Loading historical data...
Loading historical data...
Loading historical data...
Loading historical data...

Documentation

Showing up to 5 results
|